CZ-6A DEB, 61455

Orbit data source: Space-Track

CZ-6A DEB, 61455 is space debris in LEO originally from a launch on Tue, 06 Aug 2024 UTC launched from the Taiyaun Space Center, China (TSC). Debris objects in space refer to the collection of defunct objects orbiting the Earth. Examples of debris include non-operational satellites, rocket bodies, and fragments generated from explosions, collisions, or faulty payload assembly.

Loading next visibility...
Identifier
61455, 2024-140ZM
Orbit
LEO
Country
Flag of CNCN / PRC
Related business
Manufacturer
SAST
Mission
Spacecraft
Bus & Motor
Unknown
Mass
Unknown
Launch date (UTC)
2024-08-06 (2 years ago)
Launch vehicle
Unknown
Launch site
Taiyaun Space Center, China (TSC)
Object type
Payload
Rocket body
Debris
Shape & HBR
Unknown shape, 0.1 m
Radar Cross Section
Small (<0.1 m²)

Expand to show TLE details & history
Last TLE update: 10 hours ago

TLE from 10 hours ago
0 CZ-6A DEB
1 61455U 24140ZM  26118.69400360  .00009219  00000-0  55601-3 0  9999
2 61455  90.2736  14.2373 0171554 291.8270  66.4791 14.99091107 90623
Epoch: 2026-04-28T16:39Z
TLE epoch observation values (Epoch: 2026-04-28T16:39:21.911Z)
Latitude
0.00002°
Longitude
-92.26964°
Altitude
527.03 km
Speed
7.624 km/s
True Right ascension
00h 56m 56s
True Declination
0° 00' 00"
Sunlit
Object was in daylight at epoch
Visualization orbit readout
Latitude
Unknown
Longitude
Unknown
Altitude
Unknown
Speed
Unknown
Apparent Right ascension
Unknown
Apparent Declination
Unknown
Sunlit
N/A
Visualization observer readout
Local Sidereal Time
10:05:59
Azimuth
Unknown
Elevation
Unknown
Doppler factor
Unknown
Orbital elements
Apogee altitude
685.677 km
Perigee altitude
447.399 km
Semi-major axis
6,944.675 km
Eccentricity
0.01716
Inclination
90.2736°
RAAN
14.2373°
Arg. of periapsis
291.827°
True anomaly
68.29688°
Mean anomaly
66.4791°
Eccentric anomaly
67.38646°
Mean motion
3.75029 °/min
Orbital period
95.99 mins
BSTAR
0.00055601
Loading maneuver chart data...
Computing Atmospheric mass density...
Loading historical data...
Loading historical data...
Loading historical data...
Loading historical data...
Loading historical data...
Loading historical data...
Loading historical data...

Documentation

Showing up to 5 results
|